COSMOS 1275 DEB, 12694

Orbit data source: Space-Track

COSMOS 1275 DEB, 12694 is space debris in LEO originally from a launch on Thu, 04 Jun 1981 UTC launched from the Plesetsk Missile And Space Complex (PKMTR). Debris objects in space refer to the collection of defunct objects orbiting the Earth. Examples of debris include non-operational satellites, rocket bodies, and fragments generated from explosions, collisions, or faulty payload assembly.

Loading next visibility...
COSMOS 1275 DEB details
Identifier
12694, 1981-053AN
Orbit
LEO
Last TLE update14 hours ago
Origin
Flag of CISVMF (CIS)
ManufacturerUnknown
MissionSpacecraft
Bus & MotorUnknown
MassUnknown
Launch date (UTC)
1981-06-04 (44 years ago)
Launch vehicleUnknown
Launch site
Plesetsk Missile And Space Complex (PKMTR)
Object type
Payload
Rocket body
Debris
Shape & HBRUnknown
Radar Cross SectionSmall (<0.1 m²)

Expand to show TLE details & history

TLE from 14 hours ago
0 COSMOS 1275 DEB
1 12694U 81053AN  25025.26508100  .00000904  00000-0  11064-2 0  9992
2 12694  83.0806 100.8546 0116407 194.1881 227.2123 13.61859071154116
Epoch: 2025-01-25T06:21Z
Definitive object data (Epoch: 2025-01-25T06:21:42.998Z)
Latitude59.79551°
Longitude-107.42043°
Altitude1,098.22 km
Speed7.28 km/s
True Right ascension07h 31m 18s
True Declination59° 39' 09"
Sunlit
Object was in full shadow at TLE epoch
Visualization TLE readout
Latitude-6.41331°
Longitude-120.57617°
Altitude1,114.353 km
Speed7.255 km/s
Apparent Right ascension07h 45m 29s
Apparent Declination-23° 01' 22"
Sunlit
Object is in full shadow
Visualization observer readout
Local Sidereal Time21:29:07
Azimuth60.097° ENE
Elevation-62.364°
Doppler factor1
Orbital elements
Apogee altitude1,112.295 km
Perigee altitude939.914 km
Semi-major axis7,404.242 km
Eccentricity0.0116407
Inclination83.0806°
RAAN100.8546°
Arg. of periapsis194.1881°
True anomaly226.243°
Mean anomaly227.2123°
Eccentric anomaly226.72669°
Mean motion3.40661 °/min
BSTAR0.0011064
Orbital period105.68 mins
Loading maneuver chart data...
Loading historical data...
Loading historical data...
Loading historical data...
Loading historical data...
Loading historical data...
Loading historical data...
Loading historical data...

COSMOS 1275 DEB Visibility forecast

Observer location: undefined°, undefined

Span
Click to sort rows by Start time (UTC) header in descending order
Start Az.
Max El. time (UTC)
Max El. Az.
Max El.
End time (UTC)
End Az.
12 mins2025-01-26 05:05:03.880Z164.109° S2025-01-26 05:11:03.880Z87.241° E39.164°2025-01-26 05:17:03.880Z17.227° NNE
9 mins2025-01-26 06:54:03.880Z246.687° WSW2025-01-26 06:58:03.880Z292.285° WNW23.197°2025-01-26 07:03:03.880Z341.357° N
10 mins2025-01-26 16:10:03.880Z9.687° NNE2025-01-26 16:15:03.880Z83.928° E35.679°2025-01-26 16:20:03.880Z148.257° SSE
7 mins2025-01-26 17:58:03.880Z312.611° NW2025-01-26 18:01:03.880Z274.245° WNW22.567°2025-01-26 18:05:03.880Z228.436° WSW
|